User: anonymous   Login
Location: Unspecified
(0.0000°N, 0.0000°E)
Time: 20:13:24
(UTC+00:00)
Language:

DMSP 5D-3 F18 (USA 210) - Orbit

View from above orbital plane
View from above orbital plane
View from above satellite
View from above satellite

Ground track
Ground track

The orbit data is extracted from the following two-line orbital elements,

1 35951U 09057A   19110.65836077  .00000048  00000-0  47860-4 0  9999
2 35951  98.6201 110.5358 0011958 134.1474 226.0684 14.13184825490145
Epoch (UTC): 20 April 2019 15:48:02
Eccentricity: 0.0011958
inclination: 98.6201°
perigee height: 840 km
apogee height: 857 km
right ascension of ascending node: 110.5358°
argument of perigee: 134.1474°
revolutions per day: 14.13184825
mean anomaly at epoch: 226.0684°
orbit number at epoch: 49014

The dashed part of the orbit path shows where the satellite is in the earth's shadow,  

DLR